Location: Berlin
(38.3226°N, 75.2177°W)
Time: 22:55:52
(UTC+00:00)

NOSS 3-3 (C) - Pass Details

Date: 26 October 2020
Orbit: 827 x 1385 km, 63.5° (Epoch: 03 December)

Event Time Altitude Azimuth Distance (km) Brightness Sun altitude
Rises 00:31:59 0° 225° (SW) 3,388 7.3 -28.7°
Reaches altitude 10° 00:34:24 10° 230° (SW) 2,490 6.6 -29.1°
Maximum altitude 00:40:00 55° 308° (NW) 1,094 4.4 -30.2°
Enters shadow 00:42:01 39° 2° (N) 1,387 4.8 -30.6°
